Wetterdaten: Dienstag, 02.10.2018
Datum Zeit Temp. Auen Feucht Auen Luftdruck Regen Richtung Richtung Windben
02.10.2018 00:00 7,2 C 91 % 1019,6 hPa 0,0 mm W 270 6,4 km/h (2 Bft)
02.10.2018 00:05 7,2 C 91 % 1019,6 hPa 0,0 mm W 269 4,8 km/h (1 Bft)
02.10.2018 00:10 7,1 C 91 % 1019,6 hPa 0,0 mm W-NW 296 4,8 km/h (1 Bft)
02.10.2018 00:15 7,1 C 91 % 1019,6 hPa 0,0 mm W-SW 253 4,8 km/h (1 Bft)
02.10.2018 00:20 7,2 C 91 % 1019,6 hPa 0,0 mm W-SW 253 3,2 km/h (1 Bft)
02.10.2018 00:25 7,2 C 91 % 1019,6 hPa 0,0 mm W-SW 253 3,2 km/h (1 Bft)
02.10.2018 00:30 7,2 C 91 % 1019,7 hPa 0,0 mm W-NW 284 8,0 km/h (2 Bft)
02.10.2018 00:35 7,1 C 91 % 1019,6 hPa 0,0 mm W 271 9,7 km/h (2 Bft)
02.10.2018 00:40 7,1 C 91 % 1019,7 hPa 0,0 mm W 267 14,5 km/h (3 Bft)
02.10.2018 00:45 7,0 C 91 % 1019,7 hPa 0,0 mm W-NW 284 6,4 km/h (2 Bft)
02.10.2018 00:50 7,0 C 91 % 1019,6 hPa 0,0 mm W 278 8,0 km/h (2 Bft)
02.10.2018 00:55 6,9 C 91 % 1019,7 hPa 0,0 mm W 279 6,4 km/h (2 Bft)
02.10.2018 01:00 7,0 C 91 % 1019,8 hPa 0,0 mm W 277 6,4 km/h (2 Bft)
02.10.2018 01:05 7,0 C 91 % 1019,8 hPa 0,0 mm W 276 8,0 km/h (2 Bft)
02.10.2018 01:10 7,0 C 91 % 1019,9 hPa 0,0 mm W-NW 284 6,4 km/h (2 Bft)
02.10.2018 01:15 7,0 C 91 % 1019,9 hPa 0,0 mm W 265 8,0 km/h (2 Bft)
02.10.2018 01:20 7,0 C 91 % 1020,0 hPa 0,0 mm W 264 8,0 km/h (2 Bft)
02.10.2018 01:25 7,0 C 91 % 1020,0 hPa 0,2 mm W 265 9,7 km/h (2 Bft)
02.10.2018 01:30 7,0 C 91 % 1020,1 hPa 0,0 mm W 263 12,9 km/h (3 Bft)
02.10.2018 01:35 6,9 C 91 % 1020,1 hPa 0,4 mm W-SW 257 24,1 km/h (4 Bft)
02.10.2018 01:40 6,9 C 91 % 1020,1 hPa 0,2 mm W 267 16,1 km/h (3 Bft)
02.10.2018 01:45 6,9 C 91 % 1020,1 hPa 0,2 mm W 263 16,1 km/h (3 Bft)
02.10.2018 01:50 6,8 C 91 % 1020,0 hPa 0,2 mm W 261 12,9 km/h (3 Bft)
02.10.2018 01:55 6,7 C 91 % 1020,0 hPa 0,2 mm W 267 14,5 km/h (3 Bft)
02.10.2018 02:00 6,7 C 91 % 1020,0 hPa 0,0 mm W 279 8,0 km/h (2 Bft)
02.10.2018 02:05 6,7 C 91 % 1020,0 hPa 0,2 mm W 278 11,3 km/h (2 Bft)
02.10.2018 02:10 6,6 C 91 % 1020,0 hPa 0,2 mm W 267 9,7 km/h (2 Bft)
02.10.2018 02:15 6,6 C 91 % 1020,0 hPa 0,2 mm W 261 6,4 km/h (2 Bft)
02.10.2018 02:20 6,6 C 91 % 1020,0 hPa 0,0 mm W 269 8,0 km/h (2 Bft)
02.10.2018 02:25 6,6 C 91 % 1020,0 hPa 0,2 mm W 263 8,0 km/h (2 Bft)
02.10.2018 02:30 6,5 C 91 % 1020,0 hPa 0,0 mm W 266 8,0 km/h (2 Bft)
02.10.2018 02:35 6,5 C 91 % 1020,0 hPa 0,0 mm W 266 3,2 km/h (1 Bft)
02.10.2018 02:40 6,5 C 91 % 1020,0 hPa 0,0 mm W 265 6,4 km/h (2 Bft)
02.10.2018 02:45 6,5 C 91 % 1019,9 hPa 0,0 mm W 270 6,4 km/h (2 Bft)
02.10.2018 02:50 6,5 C 91 % 1020,0 hPa 0,0 mm W 270 3,2 km/h (1 Bft)
02.10.2018 02:55 6,5 C 91 % 1020,0 hPa 0,0 mm W 270 0,0 km/h (0 Bft)
02.10.2018 03:00 6,5 C 91 % 1020,0 hPa 0,0 mm W 270 4,8 km/h (1 Bft)
02.10.2018 03:05 6,5 C 91 % 1019,9 hPa 0,0 mm W 270 3,2 km/h (1 Bft)
02.10.2018 03:10 6,5 C 91 % 1019,9 hPa 0,0 mm W 270 4,8 km/h (1 Bft)
02.10.2018 03:15 6,5 C 91 % 1019,8 hPa 0,0 mm W 270 6,4 km/h (2 Bft)
02.10.2018 03:20 6,6 C 91 % 1019,8 hPa 0,0 mm W 270 4,8 km/h (1 Bft)
02.10.2018 03:25 6,6 C 92 % 1019,8 hPa 0,0 mm W 270 4,8 km/h (1 Bft)
02.10.2018 03:30 6,6 C 92 % 1019,8 hPa 0,0 mm W 270 3,2 km/h (1 Bft)
02.10.2018 03:35 6,7 C 92 % 1019,7 hPa 0,0 mm W 270 4,8 km/h (1 Bft)
02.10.2018 03:40 6,7 C 92 % 1019,7 hPa 0,0 mm W 275 4,8 km/h (1 Bft)
02.10.2018 03:45 6,7 C 92 % 1019,7 hPa 0,0 mm W 275 4,8 km/h (1 Bft)
02.10.2018 03:50 6,7 C 92 % 1019,7 hPa 0,0 mm W 274 6,4 km/h (2 Bft)
02.10.2018 03:55 6,7 C 92 % 1019,7 hPa 0,0 mm W 263 6,4 km/h (2 Bft)
02.10.2018 04:00 6,8 C 92 % 1019,7 hPa 0,0 mm W 279 9,7 km/h (2 Bft)
02.10.2018 04:05 6,8 C 92 % 1019,7 hPa 0,0 mm W-SW 249 9,7 km/h (2 Bft)
02.10.2018 04:10 6,8 C 92 % 1019,9 hPa 0,2 mm W 267 12,9 km/h (3 Bft)
02.10.2018 04:15 6,6 C 92 % 1020,0 hPa 0,4 mm W 265 25,7 km/h (4 Bft)
02.10.2018 04:20 6,3 C 91 % 1020,2 hPa 0,4 mm W-SW 250 20,9 km/h (4 Bft)
02.10.2018 04:25 6,2 C 92 % 1020,5 hPa 0,4 mm W 262 17,7 km/h (3 Bft)
02.10.2018 04:30 6,1 C 91 % 1020,7 hPa 1,2 mm W 265 20,9 km/h (4 Bft)
02.10.2018 04:35 5,9 C 92 % 1020,7 hPa 0,4 mm W 262 11,3 km/h (2 Bft)
02.10.2018 04:40 5,8 C 91 % 1020,7 hPa 0,4 mm W-SW 252 9,7 km/h (2 Bft)
02.10.2018 04:45 5,7 C 92 % 1020,8 hPa 0,4 mm W 264 8,0 km/h (2 Bft)
02.10.2018 04:50 5,7 C 92 % 1020,7 hPa 0,2 mm W 261 12,9 km/h (3 Bft)
02.10.2018 04:55 5,7 C 92 % 1020,8 hPa 0,4 mm W-NW 292 11,3 km/h (2 Bft)
02.10.2018 05:00 5,6 C 92 % 1020,9 hPa 0,2 mm W 263 19,3 km/h (3 Bft)
02.10.2018 05:05 5,6 C 92 % 1020,9 hPa 0,2 mm W 270 14,5 km/h (3 Bft)
02.10.2018 05:10 5,5 C 92 % 1021,1 hPa 0,0 mm W 270 11,3 km/h (2 Bft)
02.10.2018 05:15 5,4 C 92 % 1021,1 hPa 0,0 mm W 281 9,7 km/h (2 Bft)
02.10.2018 05:20 5,4 C 92 % 1021,1 hPa 0,0 mm W 265 8,0 km/h (2 Bft)
02.10.2018 05:25 5,4 C 92 % 1021,3 hPa 0,0 mm W-NW 300 9,7 km/h (2 Bft)
02.10.2018 05:30 5,4 C 92 % 1021,3 hPa 0,0 mm W 271 9,7 km/h (2 Bft)
02.10.2018 05:35 5,3 C 92 % 1021,4 hPa 0,0 mm W-NW 282 12,9 km/h (3 Bft)
02.10.2018 05:40 5,3 C 92 % 1021,3 hPa 0,2 mm W 276 12,9 km/h (3 Bft)
02.10.2018 05:45 5,3 C 92 % 1021,3 hPa 0,0 mm W 267 8,0 km/h (2 Bft)
02.10.2018 05:50 5,3 C 92 % 1021,4 hPa 0,0 mm W 273 6,4 km/h (2 Bft)
02.10.2018 05:55 5,4 C 92 % 1021,4 hPa 0,2 mm W 272 8,0 km/h (2 Bft)
02.10.2018 06:00 5,4 C 92 % 1021,5 hPa 0,0 mm W 272 6,4 km/h (2 Bft)
02.10.2018 06:05 5,4 C 92 % 1021,4 hPa 0,0 mm W 275 8,0 km/h (2 Bft)
02.10.2018 06:10 5,4 C 92 % 1021,5 hPa 0,0 mm W 267 8,0 km/h (2 Bft)
02.10.2018 06:15 5,4 C 92 % 1021,4 hPa 0,0 mm W 272 8,0 km/h (2 Bft)
02.10.2018 06:20 5,5 C 92 % 1021,5 hPa 0,0 mm W 272 4,8 km/h (1 Bft)
02.10.2018 06:25 5,5 C 92 % 1021,5 hPa 0,0 mm W 272 6,4 km/h (2 Bft)
02.10.2018 06:30 5,6 C 92 % 1021,6 hPa 0,0 mm W 273 8,0 km/h (2 Bft)
02.10.2018 06:35 5,6 C 92 % 1021,6 hPa 0,0 mm W 269 8,0 km/h (2 Bft)
02.10.2018 06:40 5,6 C 92 % 1021,7 hPa 0,0 mm W 269 8,0 km/h (2 Bft)
02.10.2018 06:45 5,6 C 92 % 1021,8 hPa 0,0 mm W 269 8,0 km/h (2 Bft)
02.10.2018 06:50 5,7 C 92 % 1021,8 hPa 0,0 mm W-SW 255 8,0 km/h (2 Bft)
02.10.2018 06:55 5,7 C 92 % 1021,9 hPa 0,0 mm W-SW 254 8,0 km/h (2 Bft)
02.10.2018 07:00 5,7 C 92 % 1021,9 hPa 0,0 mm W 267 8,0 km/h (2 Bft)
02.10.2018 07:05 5,7 C 92 % 1021,8 hPa 0,0 mm W-SW 252 11,3 km/h (2 Bft)
02.10.2018 07:10 5,7 C 92 % 1022,0 hPa 0,0 mm W 277 9,7 km/h (2 Bft)
02.10.2018 07:15 5,8 C 92 % 1022,1 hPa 0,0 mm W 275 11,3 km/h (2 Bft)
02.10.2018 07:20 5,8 C 92 % 1022,1 hPa 0,0 mm W 277 9,7 km/h (2 Bft)
02.10.2018 07:25 5,8 C 92 % 1022,2 hPa 0,0 mm W 268 8,0 km/h (2 Bft)
02.10.2018 07:30 5,8 C 92 % 1022,2 hPa 0,0 mm W 273 9,7 km/h (2 Bft)
02.10.2018 07:35 5,8 C 92 % 1022,3 hPa 0,0 mm W 269 12,9 km/h (3 Bft)
02.10.2018 07:40 5,8 C 92 % 1022,4 hPa 0,0 mm W 261 11,3 km/h (2 Bft)
02.10.2018 07:45 5,8 C 92 % 1022,4 hPa 0,0 mm W 260 9,7 km/h (2 Bft)
02.10.2018 07:50 5,8 C 92 % 1022,5 hPa 0,0 mm W 275 14,5 km/h (3 Bft)
02.10.2018 07:55 5,8 C 92 % 1022,6 hPa 0,0 mm W 265 11,3 km/h (2 Bft)
02.10.2018 08:00 5,8 C 92 % 1022,7 hPa 0,0 mm W 278 8,0 km/h (2 Bft)
02.10.2018 08:05 5,8 C 92 % 1022,7 hPa 0,0 mm W 277 8,0 km/h (2 Bft)
02.10.2018 08:10 5,9 C 92 % 1022,7 hPa 0,0 mm W 267 14,5 km/h (3 Bft)
02.10.2018 08:15 5,9 C 92 % 1022,8 hPa 0,0 mm W 270 8,0 km/h (2 Bft)
02.10.2018 08:20 5,8 C 92 % 1022,8 hPa 0,0 mm W-SW 257 19,3 km/h (3 Bft)
02.10.2018 08:25 5,8 C 92 % 1023,0 hPa 0,0 mm W-SW 250 17,7 km/h (3 Bft)
02.10.2018 08:30 5,8 C 92 % 1023,0 hPa 0,0 mm W 265 16,1 km/h (3 Bft)
02.10.2018 08:35 5,8 C 92 % 1023,1 hPa 0,0 mm W 261 12,9 km/h (3 Bft)
02.10.2018 08:40 5,9 C 92 % 1023,1 hPa 0,0 mm W 265 16,1 km/h (3 Bft)
02.10.2018 08:45 5,9 C 92 % 1023,0 hPa 0,0 mm W 266 19,3 km/h (3 Bft)
02.10.2018 08:50 5,9 C 92 % 1023,2 hPa 0,0 mm W-SW 255 17,7 km/h (3 Bft)
02.10.2018 08:55 5,8 C 92 % 1023,2 hPa 0,0 mm W 269 12,9 km/h (3 Bft)
02.10.2018 09:00 5,8 C 92 % 1023,4 hPa 0,0 mm W 263 12,9 km/h (3 Bft)
02.10.2018 09:05 5,8 C 92 % 1023,4 hPa 0,0 mm W-SW 257 16,1 km/h (3 Bft)
02.10.2018 09:10 5,8 C 92 % 1023,5 hPa 0,2 mm W-NW 286 17,7 km/h (3 Bft)
02.10.2018 09:15 5,8 C 92 % 1023,5 hPa 0,0 mm W 267 17,7 km/h (3 Bft)
02.10.2018 09:20 5,8 C 92 % 1023,6 hPa 0,0 mm W-SW 250 14,5 km/h (3 Bft)
02.10.2018 09:25 5,9 C 92 % 1023,6 hPa 0,0 mm W 279 12,9 km/h (3 Bft)
02.10.2018 09:30 6,0 C 92 % 1023,6 hPa 0,0 mm W 262 14,5 km/h (3 Bft)
02.10.2018 09:35 6,1 C 92 % 1023,6 hPa 0,0 mm W 264 17,7 km/h (3 Bft)
02.10.2018 09:40 6,2 C 92 % 1023,7 hPa 0,0 mm W 270 11,3 km/h (2 Bft)
02.10.2018 09:45 6,3 C 92 % 1023,7 hPa 0,0 mm W 279 9,7 km/h (2 Bft)
02.10.2018 09:50 6,2 C 91 % 1023,8 hPa 0,0 mm W 259 9,7 km/h (2 Bft)
02.10.2018 09:55 6,1 C 91 % 1023,9 hPa 0,0 mm W 276 16,1 km/h (3 Bft)
02.10.2018 10:00 6,1 C 91 % 1023,9 hPa 0,0 mm W 263 12,9 km/h (3 Bft)
02.10.2018 10:05 6,1 C 91 % 1023,9 hPa 0,0 mm W 259 14,5 km/h (3 Bft)
02.10.2018 10:10 6,2 C 91 % 1023,9 hPa 0,0 mm W 269 9,7 km/h (2 Bft)
02.10.2018 10:15 6,4 C 91 % 1024,0 hPa 0,0 mm W 271 14,5 km/h (3 Bft)
02.10.2018 10:20 6,6 C 91 % 1024,0 hPa 0,0 mm W-SW 257 14,5 km/h (3 Bft)
02.10.2018 10:25 6,7 C 91 % 1024,1 hPa 0,0 mm W 270 14,5 km/h (3 Bft)
02.10.2018 10:30 6,8 C 91 % 1024,1 hPa 0,0 mm W-NW 292 12,9 km/h (3 Bft)
02.10.2018 10:35 6,9 C 91 % 1024,0 hPa 0,0 mm W-NW 284 14,5 km/h (3 Bft)
02.10.2018 10:40 7,0 C 91 % 1024,1 hPa 0,0 mm W-SW 257 11,3 km/h (2 Bft)
02.10.2018 10:45 6,9 C 90 % 1024,2 hPa 0,0 mm W 267 14,5 km/h (3 Bft)
02.10.2018 10:50 7,1 C 90 % 1024,1 hPa 0,0 mm W 275 12,9 km/h (3 Bft)
02.10.2018 10:55 7,8 C 91 % 1024,1 hPa 0,0 mm W 259 17,7 km/h (3 Bft)
02.10.2018 11:00 7,8 C 90 % 1024,1 hPa 0,0 mm W 261 16,1 km/h (3 Bft)
02.10.2018 11:05 7,7 C 89 % 1024,1 hPa 0,0 mm W-SW 258 17,7 km/h (3 Bft)
02.10.2018 11:10 7,8 C 88 % 1024,1 hPa 0,0 mm W-SW 251 16,1 km/h (3 Bft)
02.10.2018 11:15 7,9 C 88 % 1024,0 hPa 0,0 mm W 268 19,3 km/h (3 Bft)
02.10.2018 11:20 7,9 C 87 % 1024,2 hPa 0,0 mm W 272 29,0 km/h (5 Bft)
02.10.2018 11:25 7,2 C 87 % 1024,2 hPa 0,0 mm W 261 25,7 km/h (4 Bft)
02.10.2018 11:30 6,7 C 88 % 1024,3 hPa 0,2 mm W-SW 254 12,9 km/h (3 Bft)
02.10.2018 11:35 7,7 C 90 % 1024,3 hPa 0,0 mm W-SW 240 16,1 km/h (3 Bft)
02.10.2018 11:40 8,0 C 89 % 1024,3 hPa 0,0 mm W-NW 284 14,5 km/h (3 Bft)
02.10.2018 11:45 8,1 C 89 % 1024,3 hPa 0,0 mm W 267 20,9 km/h (4 Bft)
02.10.2018 11:50 7,6 C 88 % 1024,3 hPa 0,0 mm W-SW 254 19,3 km/h (3 Bft)
02.10.2018 11:55 7,0 C 88 % 1024,5 hPa 0,2 mm W 267 22,5 km/h (4 Bft)
02.10.2018 12:00 6,6 C 89 % 1024,3 hPa 0,0 mm W 269 19,3 km/h (3 Bft)
02.10.2018 12:05 6,9 C 90 % 1024,2 hPa 0,0 mm W 267 11,3 km/h (2 Bft)
02.10.2018 12:10 7,9 C 91 % 1024,1 hPa 0,0 mm W 274 16,1 km/h (3 Bft)
02.10.2018 12:15 8,0 C 89 % 1024,2 hPa 0,0 mm W 261 16,1 km/h (3 Bft)
02.10.2018 12:20 7,6 C 88 % 1024,3 hPa 0,0 mm W 277 22,5 km/h (4 Bft)
02.10.2018 12:25 7,4 C 88 % 1024,1 hPa 0,0 mm W 271 12,9 km/h (3 Bft)
02.10.2018 12:30 7,4 C 89 % 1024,2 hPa 0,0 mm W 267 14,5 km/h (3 Bft)
02.10.2018 12:35 7,4 C 88 % 1024,1 hPa 0,0 mm W 271 16,1 km/h (3 Bft)
02.10.2018 12:40 7,4 C 88 % 1024,1 hPa 0,0 mm W 275 17,7 km/h (3 Bft)
02.10.2018 12:45 8,5 C 89 % 1024,1 hPa 0,0 mm W 271 16,1 km/h (3 Bft)
02.10.2018 12:50 8,8 C 86 % 1024,0 hPa 0,0 mm W-NW 284 20,9 km/h (4 Bft)
02.10.2018 12:55 8,7 C 85 % 1023,9 hPa 0,0 mm W-SW 250 16,1 km/h (3 Bft)
02.10.2018 13:00 8,8 C 86 % 1023,9 hPa 0,0 mm W-NW 282 12,9 km/h (3 Bft)
02.10.2018 13:05 8,9 C 86 % 1023,8 hPa 0,0 mm W 265 12,9 km/h (3 Bft)
02.10.2018 13:10 9,0 C 86 % 1023,8 hPa 0,0 mm W 279 14,5 km/h (3 Bft)
02.10.2018 13:15 8,9 C 86 % 1023,6 hPa 0,0 mm W 259 17,7 km/h (3 Bft)
02.10.2018 13:20 9,4 C 85 % 1023,6 hPa 0,0 mm W 281 14,5 km/h (3 Bft)
02.10.2018 13:25 9,6 C 83 % 1023,5 hPa 0,0 mm W 265 16,1 km/h (3 Bft)
02.10.2018 13:30 9,8 C 84 % 1023,5 hPa 0,0 mm W-SW 257 11,3 km/h (2 Bft)
02.10.2018 13:35 10,3 C 83 % 1023,4 hPa 0,0 mm W 261 19,3 km/h (3 Bft)
02.10.2018 13:40 9,8 C 80 % 1023,3 hPa 0,0 mm W 277 25,7 km/h (4 Bft)
02.10.2018 13:45 9,4 C 79 % 1023,2 hPa 0,0 mm W-SW 254 19,3 km/h (3 Bft)
02.10.2018 13:50 9,1 C 80 % 1023,2 hPa 0,0 mm W 275 22,5 km/h (4 Bft)
02.10.2018 13:55 9,1 C 81 % 1023,4 hPa 0,0 mm W 275 16,1 km/h (3 Bft)
02.10.2018 14:00 8,9 C 80 % 1023,3 hPa 0,0 mm W 277 19,3 km/h (3 Bft)
02.10.2018 14:05 9,1 C 81 % 1023,3 hPa 0,0 mm W 271 16,1 km/h (3 Bft)
02.10.2018 14:10 9,4 C 80 % 1023,2 hPa 0,0 mm W 259 19,3 km/h (3 Bft)
02.10.2018 14:15 9,8 C 80 % 1023,2 hPa 0,0 mm W 279 16,1 km/h (3 Bft)
02.10.2018 14:20 9,9 C 80 % 1022,9 hPa 0,0 mm W-SW 257 16,1 km/h (3 Bft)
02.10.2018 14:25 10,1 C 79 % 1022,9 hPa 0,0 mm W 262 20,9 km/h (4 Bft)
02.10.2018 14:30 10,1 C 77 % 1022,8 hPa 0,0 mm W-NW 285 17,7 km/h (3 Bft)
02.10.2018 14:35 10,0 C 76 % 1022,8 hPa 0,0 mm W 275 27,4 km/h (4 Bft)
02.10.2018 14:40 9,9 C 77 % 1022,7 hPa 0,0 mm W 273 17,7 km/h (3 Bft)
02.10.2018 14:45 10,1 C 75 % 1022,6 hPa 0,0 mm W 267 19,3 km/h (3 Bft)
02.10.2018 14:50 10,1 C 75 % 1022,6 hPa 0,0 mm W 264 19,3 km/h (3 Bft)
02.10.2018 14:55 10,3 C 74 % 1022,6 hPa 0,0 mm W 263 22,5 km/h (4 Bft)
02.10.2018 15:00 10,4 C 73 % 1022,5 hPa 0,0 mm W-NW 300 24,1 km/h (4 Bft)
02.10.2018 15:05 10,4 C 73 % 1022,5 hPa 0,0 mm W-NW 284 22,5 km/h (4 Bft)
02.10.2018 15:10 10,4 C 72 % 1022,4 hPa 0,0 mm W 265 24,1 km/h (4 Bft)
02.10.2018 15:15 10,7 C 72 % 1022,5 hPa 0,0 mm W 270 24,1 km/h (4 Bft)
02.10.2018 15:20 11,1 C 71 % 1022,6 hPa 0,0 mm W-NW 283 19,3 km/h (3 Bft)
02.10.2018 15:25 10,8 C 69 % 1022,5 hPa 0,0 mm SW 229 17,7 km/h (3 Bft)
02.10.2018 15:30 10,6 C 68 % 1022,4 hPa 0,0 mm W 260 20,9 km/h (4 Bft)
02.10.2018 15:35 10,5 C 68 % 1022,2 hPa 0,0 mm W 275 20,9 km/h (4 Bft)
02.10.2018 15:40 10,6 C 68 % 1022,2 hPa 0,0 mm W 262 22,5 km/h (4 Bft)
02.10.2018 15:45 10,7 C 68 % 1022,2 hPa 0,0 mm W 273 24,1 km/h (4 Bft)
02.10.2018 15:50 10,7 C 69 % 1022,0 hPa 0,0 mm W 278 19,3 km/h (3 Bft)
02.10.2018 15:55 10,7 C 69 % 1022,1 hPa 0,0 mm W 270 17,7 km/h (3 Bft)
02.10.2018 16:00 10,8 C 68 % 1022,1 hPa 0,0 mm W 270 20,9 km/h (4 Bft)
02.10.2018 16:05 10,8 C 67 % 1022,1 hPa 0,0 mm W 270 22,5 km/h (4 Bft)
02.10.2018 16:10 10,7 C 67 % 1022,2 hPa 0,0 mm W 270 20,9 km/h (4 Bft)
02.10.2018 16:15 10,7 C 67 % 1022,1 hPa 0,2 mm W 270 27,4 km/h (4 Bft)
02.10.2018 16:20 10,8 C 68 % 1022,1 hPa 0,0 mm W 270 19,3 km/h (3 Bft)
02.10.2018 16:25 10,9 C 67 % 1022,1 hPa 0,0 mm W 270 17,7 km/h (3 Bft)
02.10.2018 16:30 10,9 C 67 % 1022,1 hPa 0,0 mm W 270 19,3 km/h (3 Bft)
02.10.2018 16:35 11,0 C 67 % 1022,1 hPa 0,0 mm W 270 14,5 km/h (3 Bft)
02.10.2018 16:40 11,0 C 67 % 1022,1 hPa 0,0 mm W 270 16,1 km/h (3 Bft)
02.10.2018 16:45 10,9 C 68 % 1022,1 hPa 0,0 mm W 270 14,5 km/h (3 Bft)
02.10.2018 16:50 10,8 C 68 % 1022,1 hPa 0,0 mm W 270 14,5 km/h (3 Bft)
02.10.2018 16:55 10,7 C 69 % 1022,1 hPa 0,0 mm W 270 11,3 km/h (2 Bft)
02.10.2018 17:00 10,6 C 69 % 1022,1 hPa 0,0 mm W 270 16,1 km/h (3 Bft)
02.10.2018 17:05 10,6 C 71 % 1022,1 hPa 0,0 mm W 270 9,7 km/h (2 Bft)
02.10.2018 17:10 10,6 C 70 % 1022,0 hPa 0,0 mm W 270 16,1 km/h (3 Bft)
02.10.2018 17:15 10,6 C 70 % 1022,0 hPa 0,0 mm W 270 16,1 km/h (3 Bft)
02.10.2018 17:20 10,6 C 72 % 1022,1 hPa 0,0 mm W 270 11,3 km/h (2 Bft)
02.10.2018 17:25 10,6 C 72 % 1022,0 hPa 0,0 mm W 270 12,9 km/h (3 Bft)
02.10.2018 17:30 10,6 C 73 % 1022,0 hPa 0,0 mm W 270 9,7 km/h (2 Bft)
02.10.2018 17:35 10,6 C 73 % 1021,8 hPa 0,0 mm W 270 8,0 km/h (2 Bft)
02.10.2018 17:40 10,4 C 73 % 1021,8 hPa 0,0 mm W 270 6,4 km/h (2 Bft)
02.10.2018 17:45 10,3 C 74 % 1021,7 hPa 0,0 mm W 270 11,3 km/h (2 Bft)
02.10.2018 17:50 10,2 C 74 % 1021,6 hPa 0,0 mm W 270 8,0 km/h (2 Bft)
02.10.2018 17:55 10,2 C 74 % 1021,6 hPa 0,0 mm W 270 8,0 km/h (2 Bft)
02.10.2018 18:00 10,1 C 75 % 1021,7 hPa 0,0 mm W 270 8,0 km/h (2 Bft)
02.10.2018 18:05 10,1 C 75 % 1021,7 hPa 0,0 mm W 270 8,0 km/h (2 Bft)
02.10.2018 18:10 9,9 C 75 % 1021,6 hPa 0,0 mm W 270 6,4 km/h (2 Bft)
02.10.2018 18:15 9,8 C 75 % 1021,6 hPa 0,0 mm W 270 8,0 km/h (2 Bft)
02.10.2018 18:20 9,8 C 75 % 1021,5 hPa 0,0 mm W 270 9,7 km/h (2 Bft)
02.10.2018 18:25 9,7 C 75 % 1021,7 hPa 0,0 mm W 270 9,7 km/h (2 Bft)
02.10.2018 18:30 9,7 C 76 % 1021,9 hPa 0,0 mm W 270 6,4 km/h (2 Bft)
02.10.2018 18:35 9,6 C 76 % 1021,9 hPa 0,0 mm W 270 6,4 km/h (2 Bft)
02.10.2018 18:40 9,6 C 77 % 1022,0 hPa 0,0 mm W 270 6,4 km/h (2 Bft)
02.10.2018 18:45 9,6 C 77 % 1022,0 hPa 0,0 mm W 270 8,0 km/h (2 Bft)
02.10.2018 18:50 9,5 C 77 % 1022,2 hPa 0,0 mm W 270 6,4 km/h (2 Bft)
02.10.2018 18:55 9,4 C 78 % 1022,2 hPa 0,0 mm W 270 6,4 km/h (2 Bft)
02.10.2018 19:00 9,4 C 78 % 1022,1 hPa 0,0 mm W 270 4,8 km/h (1 Bft)
02.10.2018 19:05 9,3 C 78 % 1022,2 hPa 0,0 mm W 270 6,4 km/h (2 Bft)
02.10.2018 19:10 9,2 C 79 % 1022,2 hPa 0,0 mm W 270 4,8 km/h (1 Bft)
02.10.2018 19:15 9,2 C 79 % 1022,3 hPa 0,0 mm W 270 4,8 km/h (1 Bft)
02.10.2018 19:20 9,2 C 80 % 1022,4 hPa 0,0 mm W 270 4,8 km/h (1 Bft)
02.10.2018 19:25 9,2 C 80 % 1022,4 hPa 0,0 mm W 270 4,8 km/h (1 Bft)
02.10.2018 19:30 9,1 C 80 % 1022,5 hPa 0,0 mm W 270 4,8 km/h (1 Bft)
02.10.2018 19:35 9,2 C 81 % 1022,6 hPa 0,0 mm W 270 6,4 km/h (2 Bft)
02.10.2018 19:40 9,1 C 81 % 1022,6 hPa 0,0 mm W 270 6,4 km/h (2 Bft)
02.10.2018 19:45 9,1 C 82 % 1022,6 hPa 0,0 mm W 270 6,4 km/h (2 Bft)
02.10.2018 19:50 9,1 C 82 % 1022,7 hPa 0,0 mm W 270 4,8 km/h (1 Bft)
02.10.2018 19:55 9,1 C 82 % 1022,7 hPa 0,0 mm W 270 3,2 km/h (1 Bft)
02.10.2018 20:00 9,0 C 83 % 1022,6 hPa 0,0 mm W 270 3,2 km/h (1 Bft)
02.10.2018 20:05 9,0 C 83 % 1022,7 hPa 0,0 mm W 270 4,8 km/h (1 Bft)
02.10.2018 20:10 8,9 C 83 % 1022,8 hPa 0,0 mm W 270 6,4 km/h (2 Bft)
02.10.2018 20:15 8,9 C 83 % 1022,8 hPa 0,0 mm W 270 4,8 km/h (1 Bft)
02.10.2018 20:20 8,9 C 83 % 1022,9 hPa 0,0 mm W 270 6,4 km/h (2 Bft)
02.10.2018 20:25 8,9 C 84 % 1022,7 hPa 0,0 mm W 270 3,2 km/h (1 Bft)
02.10.2018 20:30 8,9 C 84 % 1022,8 hPa 0,0 mm W 270 4,8 km/h (1 Bft)
02.10.2018 20:35 8,9 C 84 % 1022,7 hPa 0,0 mm W 270 4,8 km/h (1 Bft)
02.10.2018 20:40 8,9 C 84 % 1022,8 hPa 0,0 mm W 270 6,4 km/h (2 Bft)
02.10.2018 20:45 8,9 C 84 % 1022,8 hPa 0,0 mm W 270 6,4 km/h (2 Bft)
02.10.2018 20:50 8,9 C 84 % 1022,7 hPa 0,0 mm W 270 3,2 km/h (1 Bft)
02.10.2018 20:55 8,9 C 84 % 1022,8 hPa 0,0 mm W 270 3,2 km/h (1 Bft)
02.10.2018 21:00 8,9 C 84 % 1022,8 hPa 0,0 mm W 270 4,8 km/h (1 Bft)
02.10.2018 21:05 8,9 C 84 % 1022,8 hPa 0,0 mm W 270 3,2 km/h (1 Bft)
02.10.2018 21:10 8,9 C 84 % 1022,8 hPa 0,0 mm W 270 4,8 km/h (1 Bft)
02.10.2018 21:15 8,9 C 84 % 1022,9 hPa 0,0 mm W 270 4,8 km/h (1 Bft)
02.10.2018 21:20 8,9 C 84 % 1022,9 hPa 0,0 mm W 270 3,2 km/h (1 Bft)
02.10.2018 21:25 8,9 C 84 % 1022,8 hPa 0,0 mm W 270 4,8 km/h (1 Bft)
02.10.2018 21:30 8,9 C 84 % 1022,8 hPa 0,0 mm W 270 4,8 km/h (1 Bft)
02.10.2018 21:35 8,8 C 84 % 1022,8 hPa 0,0 mm W 270 4,8 km/h (1 Bft)
02.10.2018 21:40 8,8 C 83 % 1022,8 hPa 0,0 mm W 270 4,8 km/h (1 Bft)
02.10.2018 21:45 8,9 C 83 % 1022,7 hPa 0,0 mm W 270 3,2 km/h (1 Bft)
02.10.2018 21:50 8,9 C 82 % 1022,7 hPa 0,0 mm W 270 4,8 km/h (1 Bft)
02.10.2018 21:55 8,9 C 82 % 1022,8 hPa 0,0 mm W 270 4,8 km/h (1 Bft)
02.10.2018 22:00 8,9 C 82 % 1022,8 hPa 0,0 mm N 0 0,0 km/h (0 Bft)
02.10.2018 22:05 9,0 C 82 % 1022,8 hPa 0,0 mm W 270 1,6 km/h (1 Bft)
02.10.2018 22:10 9,0 C 82 % 1022,9 hPa 0,0 mm W 270 6,4 km/h (2 Bft)
02.10.2018 22:15 9,0 C 82 % 1023,0 hPa 0,0 mm W 270 4,8 km/h (1 Bft)
02.10.2018 22:20 9,0 C 81 % 1023,1 hPa 0,0 mm W 270 6,4 km/h (2 Bft)
02.10.2018 22:25 9,0 C 81 % 1023,2 hPa 0,0 mm W 270 6,4 km/h (2 Bft)
02.10.2018 22:30 9,0 C 81 % 1023,2 hPa 0,0 mm W 270 4,8 km/h (1 Bft)
02.10.2018 22:35 9,0 C 81 % 1023,2 hPa 0,0 mm W 270 8,0 km/h (2 Bft)
02.10.2018 22:40 9,0 C 81 % 1023,3 hPa 0,0 mm W 270 12,9 km/h (3 Bft)
02.10.2018 22:45 9,0 C 80 % 1023,4 hPa 0,0 mm W 270 9,7 km/h (2 Bft)
02.10.2018 22:50 9,1 C 80 % 1023,3 hPa 0,0 mm W 270 9,7 km/h (2 Bft)
02.10.2018 22:55 9,1 C 79 % 1023,4 hPa 0,0 mm W 270 14,5 km/h (3 Bft)
02.10.2018 23:00 9,3 C 79 % 1023,5 hPa 0,0 mm W 270 22,5 km/h (4 Bft)
02.10.2018 23:05 9,4 C 78 % 1023,5 hPa 0,0 mm W 270 25,7 km/h (4 Bft)
02.10.2018 23:10 9,6 C 78 % 1023,6 hPa 0,0 mm W 270 22,5 km/h (4 Bft)
02.10.2018 23:15 9,7 C 78 % 1023,6 hPa 0,0 mm W 270 22,5 km/h (4 Bft)
02.10.2018 23:15 9,7 C 78 % 1023,7 hPa 0,0 mm W-NW 282 20,9 km/h (4 Bft)
02.10.2018 23:20 9,8 C 80 % 1023,8 hPa 0,0 mm W 266 35,4 km/h (5 Bft)
02.10.2018 23:25 9,7 C 82 % 1023,7 hPa 0,0 mm W 259 25,7 km/h (4 Bft)
02.10.2018 23:30 9,6 C 83 % 1023,7 hPa 0,2 mm W 261 17,7 km/h (3 Bft)
02.10.2018 23:35 9,4 C 84 % 1023,7 hPa 0,0 mm W 281 14,5 km/h (3 Bft)
02.10.2018 23:40 9,4 C 84 % 1023,7 hPa 0,0 mm W 278 16,1 km/h (3 Bft)
02.10.2018 23:45 9,3 C 85 % 1023,7 hPa 0,2 mm W 265 16,1 km/h (3 Bft)
02.10.2018 23:50 9,2 C 86 % 1023,8 hPa 0,0 mm W-SW 246 16,1 km/h (3 Bft)
02.10.2018 23:55 9,1 C 86 % 1023,8 hPa 0,0 mm W 275 19,3 km/h (3 Bft)
_ Min-Zeit 05:30 16:05 00:00 - - - 02:55
Minimum _ 5,3 C 67 % 1019,6 hPa - - - 0,0 km/h (0 Bft)
_ Max-Zeit 15:20 03:25 11:55 04:30 - - 23:20
Maximum _ 11,1 C 92 % 1024,5 hPa 1,2 mm - - 35,4 km/h
W (5 Bft)
Durchschnitt _ 7,9 C 85 % 1022,2 hPa #8,6 mm W - 12,0 km/h (2 Bft)